NEUTRON-1 (46923 NORAD) Tracking and Keplerian Element Data
This shows tracking and keplerian element data for the satellite.
Feedback or suggestion? Click here.
Element | Value |
Catalog | 46923 |
Name | NEUTRON-1 |
Epoch Orbit | 1148 |
Epoch Day | 17.81580856 |
Epoch Year | 2021 |
RAAN | 5.6243 |
Inclination | 51.644 |
Eccentricity | 0.0001035 |
Argument of Perigee | 247.7028 |
Mean Anonmoly | 112.3852 |
Mean Motion | 15.51416078 |
Decay Rate | 5.878E-05 |
L1 | 1 46923U 98067RT 21017.81580856 .00005878 00000-0 10555-3 0 9993 |
L2 | 2 46923 51.6440 5.6243 0001035 247.7028 112.3852 15.51416078 11489 |
Live tracking and technical data element details for NEUTRON-1 (NORAD 46923). NEUTRON-1 can be tracked NOW for your location showing map with azimuth and elevation plus other details from your city location.
Track the satellite on the map from your city or location and see movement details for azimuth, elevation, latitude, longitude, range, height, and movement on the map or in text.
IsCatalogInMostPopularTable: catalog: 46923, numindb: 24
Update: records affected: 1
GetName: 46923 NEUTRON-1
Hit Count: updated at: Tue, 19 Jan 2021 03:09:17 GMT